FW6014 Weather Reports


Display with metric or nautical units.
time (UTC)temp
F
wind
direction
speed
MPH
gust
MPH
rain 1hr
in
rain 24hr
in
rain mn
in
humidity
%
barometer
mb
20260506170817 60 277 2.0 7.0 0.01 0.12 0.01 85 1007.3
20260506170317 60 277 2.0 7.0 0.01 0.12 0.01 85 1007.3
20260506170005 60 277 2.0 7.0 0.01 0.12 0.01 86 1007.1
20260506165817 60 277 1.0 5.0 0.01 0.11 0.01 86 1007.4
20260506165318 60 277 1.0 4.0 0.01 0.11 0.01 86 1007.7
20260506164817 60 277 1.0 5.0 0.00 0.11 0.00 85 1007.8
20260506164602 60 277 0.0 5.0 0.00 0.11 0.00 85 1007.6
20260506164318 60 277 1.0 5.0 0.00 0.11 0.00 86 1007.9
20260506163817 60 277 0.0 3.0 0.00 0.11 0.00 86 1008.1
20260506163317 60 277 0.0 3.0 0.00 0.11 0.00 86 1008.2
20260506163003 60 277 0.0 2.0 0.00 0.11 0.00 86 1007.9
20260506162817 60 277 0.0 2.0 0.00 0.11 0.00 86 1008.2
20260506161607 60 277 0.0 2.0 0.00 0.11 0.00 84 1008.3
20260506161314 61 277 0.0 4.0 0.00 0.11 0.00 83 1008.8
20260506160815 61 277 0.0 4.0 0.00 0.11 0.00 83 1008.8
20260506160315 61 277 0.0 4.0 0.00 0.11 0.00 82 1008.8
20260506160002 60 277 0.0 4.0 0.00 0.11 0.00 83 1008.4
20260506155815 61 277 1.0 4.0 0.00 0.11 0.00 83 1008.6
20260506155314 61 277 1.0 4.0 0.00 0.11 0.00 82 1008.8
20260506154817 61 277 1.0 4.0 0.00 0.11 0.00 81 1009.1
20260506154602 60 277 0.0 4.0 0.00 0.11 0.00 80 1008.7
20260506154315 61 277 1.0 3.0 0.00 0.11 0.00 80 1009.1
20260506153315 61 277 1.0 3.0 0.00 0.11 0.00 80 1009.2
20260506153002 60 277 1.0 3.0 0.00 0.11 0.00 79 1008.9
20260506152815 61 277 1.0 3.0 0.00 0.11 0.00 78 1009.2
20260506152316 61 277 1.0 3.0 0.00 0.11 0.00 79 1009.1
20260506151815 61 277 1.0 3.0 0.00 0.11 0.00 79 1009.1
20260506151610 60 277 0.0 4.0 0.00 0.11 0.00 79 1008.9
20260506151315 61 277 1.0 4.0 0.00 0.11 0.00 79 1009.1
20260506150314 61 277 1.0 3.0 0.00 0.11 0.00 79 1009.0
20260506150002 60 277 0.0 2.0 0.00 0.11 0.00 79 1008.8
20260506145814 61 277 0.0 2.0 0.00 0.11 0.00 79 1009.1
20260506145314 61 277 0.0 2.0 0.00 0.11 0.00 79 1009.2
20260506144624 60 277 0.0 4.0 0.00 0.11 0.00 79 1008.8
20260506144313 61 277 1.0 4.0 0.00 0.11 0.00 79 1009.1
20260506143813 60 277 1.0 3.0 0.00 0.11 0.00 79 1009.2
20260506143314 60 277 1.0 3.0 0.00 0.11 0.00 82 1009.0
20260506143152 60 277 0.0 3.0 0.00 0.11 0.00 81 1008.7
20260506142814 60 277 1.0 3.0 0.00 0.11 0.00 81 1009.0
20260506142314 60 277 1.0 6.0 0.00 0.11 0.00 81 1009.0
20260506141811 60 277 0.0 6.0 0.00 0.11 0.00 80 1008.9
20260506141551 60 277 0.0 6.0 0.00 0.11 0.00 80 1008.6
20260506141310 60 277 0.0 2.0 0.00 0.11 0.00 81 1008.8
20260506140147 60 277 0.0 0.0 0.00 0.11 0.00 84 1008.8
20260506135806 60 277 0.0 0.0 0.00 0.11 0.00 85 1009.1
20260506134538 59 277 0.0 0.0 0.00 0.11 0.00 83 1009.0
20260506134305 59 277 0.0 0.0 0.00 0.11 0.00 85 1009.2
20260506133803 59 277 0.0 0.0 0.00 0.11 0.00 84 1009.2
20260506133302 58 277 0.0 1.0 0.00 0.11 0.00 84 1009.2
20260506133131 58 277 0.0 1.0 0.00 0.11 0.00 83 1009.0
20260506132800 59 277 0.0 1.0 0.00 0.11 0.00 83 1009.2
20260506132301 59 277 0.0 1.0 0.00 0.11 0.00 85 1009.6
20260506131800 58 277 0.0 1.0 0.00 0.11 0.00 85 1009.6
20260506131531 58 277 0.0 1.0 0.00 0.11 0.00 85 1009.3
20260506131301 58 277 0.0 1.0 0.00 0.11 0.00 87 1009.6
20260506130802 58 277 0.0 0.0 0.00 0.11 0.00 86 1009.4
20260506130143 58 277 0.0 0.0 0.00 0.11 0.00 87 1009.3
20260506125805 58 277 0.0 0.0 0.00 0.11 0.00 87 1009.6
20260506125305 58 277 0.0 0.0 0.00 0.11 0.00 88 1009.7
20260506124800 57 277 0.0 0.0 0.00 0.11 0.00 88 1009.7
20260506124529 57 277 0.0 0.0 0.00 0.11 0.00 88 1009.5
20260506124302 57 277 0.0 0.0 0.00 0.11 0.00 88 1009.8
20260506123802 57 277 0.0 0.0 0.00 0.11 0.00 89 1009.8
20260506123301 57 277 0.0 0.0 0.00 0.11 0.00 89 1009.8
20260506123130 57 277 0.0 0.0 0.00 0.11 0.00 89 1009.6
20260506122802 57 277 0.0 0.0 0.00 0.11 0.00 90 1009.9
20260506122300 57 277 0.0 0.0 0.00 0.11 0.00 90 1009.8
20260506121800 57 277 0.0 0.0 0.00 0.11 0.00 90 1010.0
20260506121543 56 277 0.0 0.0 0.00 0.11 0.00 90 1009.8
20260506121521 56 277 0.0 0.0 0.00 0.11 0.00 90 1009.7
20260506120801 57 277 0.0 0.0 0.00 0.11 0.00 89 1009.9
20260506120132 56 277 0.0 0.0 0.00 0.11 0.00 90 1009.8
20260506115801 56 277 0.0 0.0 0.00 0.11 0.00 90 1010.1
20260506114801 56 277 0.0 0.0 0.00 0.11 0.00 90 1010.3
20260506114539 55 277 0.0 0.0 0.00 0.11 0.00 90 1010.0
20260506114303 56 277 0.0 0.0 0.00 0.11 0.00 91 1010.2
20260506113301 56 277 0.0 0.0 0.00 0.11 0.00 92 1010.2
20260506113130 55 277 0.0 0.0 0.00 0.11 0.00 92 1009.9
20260506112802 56 277 0.0 0.0 0.00 0.11 0.00 91 1010.1
20260506112301 56 277 0.0 0.0 0.00 0.11 0.00 92 1010.0
20260506111802 55 277 0.0 0.0 0.00 0.11 0.00 92 1009.9
20260506111534 55 277 0.0 0.0 0.00 0.11 0.00 92 1009.7
20260506111303 55 277 0.0 0.0 0.00 0.11 0.00 92 1010.0
20260506110039 54 277 0.0 0.0 0.00 0.11 0.00 93 1009.8
20260506105301 54 277 0.0 0.0 0.00 0.11 0.00 93 1009.9
20260506104801 53 277 0.0 0.0 0.00 0.11 0.00 94 1009.9
20260506104545 53 277 0.0 0.0 0.00 0.11 0.00 94 1009.8
20260506104523 53 277 0.0 0.0 0.00 0.11 0.00 94 1009.7
20260506103802 53 277 0.0 0.0 0.00 0.11 0.00 94 1009.9
20260506103128 52 277 0.0 0.0 0.00 0.11 0.00 94 1009.7
20260506102802 53 277 0.0 0.0 0.00 0.11 0.00 93 1010.0
20260506102305 53 277 0.0 0.0 0.00 0.11 0.00 93 1009.9
20260506101759 52 277 0.0 0.0 0.00 0.11 0.00 94 1009.9
20260506101539 52 277 0.0 0.0 0.00 0.11 0.00 93 1009.8
20260506101256 52 277 0.0 0.0 0.00 0.11 0.00 94 1009.9
20260506100756 52 277 0.0 0.0 0.00 0.11 0.00 93 1009.9
20260506100255 52 277 0.0 0.0 0.00 0.11 0.00 93 1009.8
20260506100118 52 277 0.0 0.0 0.00 0.11 0.00 93 1009.6
20260506095756 52 277 0.0 0.0 0.00 0.11 0.00 93 1009.8
20260506095252 52 277 0.0 0.0 0.00 0.11 0.00 93 1009.8
20260506094514 52 277 0.0 0.0 0.00 0.11 0.00 92 1009.5
20260506094249 52 277 0.0 0.0 0.00 0.11 0.00 92 1009.7
20260506093746 53 277 0.0 0.0 0.00 0.11 0.00 93 1009.7
20260506093245 52 277 0.0 0.0 0.00 0.11 0.00 92 1009.8
20260506093106 52 277 0.0 0.0 0.00 0.11 0.00 92 1009.7
20260506092739 53 277 0.0 0.0 0.00 0.11 0.00 92 1009.9
20260506091737 53 277 0.0 0.0 0.00 0.11 0.00 91 1009.7
20260506091504 53 277 0.0 0.0 0.00 0.11 0.00 91 1009.5
20260506091234 53 277 0.0 0.0 0.00 0.11 0.00 91 1009.7
20260506090733 53 277 0.0 0.0 0.00 0.11 0.00 91 1009.7
20260506085730 54 277 0.0 0.0 0.00 0.11 0.00 90 1009.6
20260506085230 54 277 0.0 0.0 0.00 0.11 0.00 90 1009.4
20260506084729 54 277 0.0 0.0 0.00 0.11 0.00 89 1009.4
20260506084510 54 277 0.0 0.0 0.00 0.11 0.00 89 1009.3
20260506084231 54 277 0.0 0.0 0.00 0.11 0.00 89 1009.4
20260506083729 55 277 0.0 0.0 0.00 0.11 0.00 89 1009.7
20260506083103 55 277 0.0 0.0 0.00 0.11 0.00 89 1009.2
20260506082729 55 277 0.0 0.0 0.00 0.11 0.00 89 1009.4
20260506082229 55 277 0.0 0.0 0.00 0.11 0.00 89 1009.6
20260506081502 55 277 0.0 0.0 0.00 0.11 0.00 89 1009.4
20260506081230 56 277 0.0 0.0 0.00 0.11 0.00 89 1009.4
20260506080230 56 277 0.0 0.0 0.00 0.11 0.00 89 1009.6
20260506073231 56 277 0.0 0.0 0.00 0.11 0.00 90 1009.7
20260506073052 56 277 0.0 0.0 0.00 0.11 0.11 90 1009.2
20260506072731 56 277 0.0 0.0 0.00 0.11 0.00 90 1009.4
20260506072233 56 277 0.0 0.0 0.00 0.11 0.00 90 1009.7
20260506071638 56 277 0.0 0.0 0.00 0.11 0.11 90 1009.4
20260506070730 56 277 0.0 1.0 0.00 0.11 0.00 91 1009.7
20260506070229 56 277 0.0 1.0 0.00 0.11 0.00 91 1009.4
20260506062227 57 277 0.0 3.0 0.00 0.11 0.00 89 1008.9
20260506061724 58 277 1.0 3.0 0.00 0.11 0.00 87 1008.7
20260506061615 58 277 0.0 2.0 0.00 0.11 0.11 85 1008.5
20260506061226 58 277 1.0 3.0 0.00 0.11 0.00 86 1008.7
20260506060725 57 277 1.0 3.0 0.00 0.11 0.00 89 1008.8
20260506060222 56 277 0.0 0.0 0.00 0.11 0.00 92 1009.0
20260506051215 56 277 0.0 0.0 0.00 0.11 0.00 91 1008.6
20260506050715 57 277 0.0 0.0 0.00 0.11 0.00 90 1008.8
20260506050215 57 277 0.0 0.0 0.00 0.11 0.00 90 1008.6
20260506050133 56 277 0.0 0.0 0.00 0.11 0.11 90 1008.4
20260506044523 58 277 0.0 0.0 0.00 0.11 0.11 87 1008.5
20260506044215 58 277 0.0 0.0 0.00 0.11 0.00 86 1008.6
20260506043715 59 277 0.0 3.0 0.00 0.11 0.00 84 1008.5
20260506043215 59 277 1.0 5.0 0.00 0.11 0.00 83 1008.5
20260506043114 59 277 0.0 5.0 0.00 0.11 0.11 83 1008.4
20260506042718 58 277 1.0 5.0 0.00 0.11 0.00 85 1008.5
20260506042214 56 277 0.0 3.0 0.00 0.11 0.00 91 1008.7
20260506041716 56 277 0.0 0.0 0.00 0.11 0.00 92 1008.6
20260506041524 55 277 0.0 0.0 0.00 0.11 0.11 92 1008.4
20260506041215 56 277 0.0 0.0 0.00 0.11 0.00 92 1008.6
20260506040714 56 277 0.0 0.0 0.00 0.11 0.00 92 1008.6
20260506040215 56 277 0.0 1.0 0.00 0.11 0.00 92 1008.5
20260506035212 56 277 0.0 0.0 0.00 0.11 0.11 92 1008.9
20260506034713 56 277 0.0 1.0 0.00 0.11 0.11 92 1009.0
20260506034501 56 277 0.0 1.0 0.00 0.11 0.11 92 1008.7
20260506034213 56 277 0.0 1.0 0.00 0.11 0.11 91 1008.8
20260506033713 56 277 0.0 1.0 0.00 0.11 0.11 91 1008.6
20260506033113 56 277 0.0 1.0 0.00 0.11 0.11 91 1008.4
20260506032710 57 277 0.0 3.0 0.00 0.11 0.11 90 1008.6
20260506032209 57 277 1.0 3.0 0.00 0.11 0.11 90 1008.5
20260506031710 56 277 0.0 3.0 0.01 0.11 0.11 90 1008.3
20260506031653 56 277 0.0 3.0 0.01 0.11 0.11 91 1008.2
20260506031208 56 277 0.0 1.0 0.01 0.11 0.11 91 1008.3
20260506030207 57 277 0.0 2.0 0.01 0.11 0.11 89 1008.4
20260506030043 56 277 0.0 2.0 0.01 0.11 0.11 90 1008.2
20260506025704 57 277 0.0 5.0 0.01 0.10 0.11 89 1008.4
20260506025202 57 277 0.0 5.0 0.01 0.10 0.11 88 1008.4
20260506024634 57 277 0.0 1.0 0.01 0.11 0.11 88 1008.4
20260506024202 58 277 0.0 6.0 0.01 0.10 0.11 87 1008.5
20260506023701 58 277 0.0 6.0 0.01 0.10 0.11 88 1008.5
20260506023201 58 277 0.0 0.0 0.01 0.10 0.11 90 1008.6
20260506023023 58 277 0.0 0.0 0.01 0.11 0.11 90 1008.4
20260506022702 58 277 0.0 2.0 0.01 0.10 0.11 89 1008.6
20260506022202 59 277 1.0 2.0 0.01 0.10 0.11 88 1008.6
20260506021701 59 277 1.0 3.0 0.00 0.10 0.10 86 1008.5
20260506021616 59 277 1.0 3.0 0.00 0.10 0.10 86 1008.4
20260506020701 58 277 0.0 4.0 0.00 0.10 0.10 88 1008.8
20260506020201 58 277 0.0 1.0 0.00 0.10 0.10 89 1008.8
20260506020004 58 277 0.0 1.0 0.00 0.10 0.10 89 1008.7
20260506015702 58 277 0.0 1.0 0.00 0.10 0.10 89 1008.7
20260506015205 58 277 0.0 1.0 0.00 0.10 0.10 89 1008.7
20260506014700 58 277 0.0 1.0 0.00 0.10 0.10 89 1008.7
20260506014559 58 277 0.0 1.0 0.00 0.10 0.10 89 1008.4
20260506014203 58 277 0.0 1.0 0.00 0.10 0.10 89 1008.4
20260506013700 57 277 0.0 2.0 0.00 0.10 0.10 91 1008.5
20260506013151 56 277 0.0 2.0 0.00 0.10 0.10 93 1008.4
20260506012700 57 277 0.0 0.0 0.00 0.10 0.10 93 1008.5
20260506012158 57 277 0.0 0.0 0.00 0.10 0.10 93 1008.5
20260506011658 57 277 0.0 0.0 0.00 0.10 0.10 93 1008.4
20260506011544 56 277 0.0 0.0 0.00 0.10 0.10 93 1008.2
20260506011159 57 277 0.0 0.0 0.00 0.10 0.10 93 1008.3
20260506010156 57 277 0.0 0.0 0.00 0.10 0.10 93 1008.2
20260506010143 57 277 0.0 0.0 0.00 0.10 0.10 93 1008.0
20260506005655 57 277 0.0 1.0 0.00 0.10 0.10 92 1008.2
20260506005159 57 277 0.0 1.0 0.00 0.10 0.10 92 1008.1
20260506004653 57 277 0.0 1.0 0.00 0.10 0.10 92 1008.0
20260506004536 57 277 0.0 1.0 0.00 0.10 0.10 92 1007.8
20260506004154 58 277 0.0 1.0 0.00 0.10 0.10 91 1007.9
20260506003654 58 277 0.0 1.0 0.00 0.10 0.10 91 1007.8
20260506003154 58 277 0.0 1.0 0.00 0.10 0.10 90 1007.7
20260506003129 57 277 0.0 1.0 0.00 0.10 0.10 90 1007.6
20260506002149 58 277 0.0 0.0 0.00 0.10 0.10 90 1007.7
20260506001650 58 277 0.0 0.0 0.00 0.10 0.10 90 1007.7
20260506001528 58 277 0.0 0.0 0.00 0.10 0.10 90 1007.5
20260506001149 58 277 0.0 1.0 0.00 0.10 0.10 90 1007.6
20260506000650 59 277 0.0 1.0 0.00 0.10 0.10 89 1007.3
20260506000128 59 277 0.0 3.0 0.00 0.10 0.10 87 1007.0
20260505235651 60 277 2.0 5.0 0.01 0.09 0.10 85 1007.1
20260505235151 62 277 2.0 6.0 0.01 0.09 0.10 81 1007.0
20260505234653 61 277 3.0 6.0 0.01 0.09 0.10 80 1007.1
20260505234526 60 277 3.0 6.0 0.01 0.10 0.10 83 1006.8
20260505234145 59 277 2.0 5.0 0.01 0.09 0.10 87 1007.1
20260505233635 58 277 2.0 5.0 0.01 0.09 0.10 88 1007.0
20260505233135 59 277 1.0 3.0 0.02 0.09 0.10 90 1006.9
20260505233126 58 277 1.0 3.0 0.02 0.10 0.10 90 1006.6
20260505232634 59 277 1.0 3.0 0.02 0.09 0.10 89 1006.7
20260505232155 60 277 1.0 4.0 0.02 0.09 0.10 84 1006.8
20260505231630 60 277 2.0 5.0 0.02 0.09 0.10 87 1006.7
20260505231517 59 277 1.0 5.0 0.02 0.10 0.10 86 1006.3
20260505231129 60 277 2.0 5.0 0.02 0.09 0.10 86 1006.5
20260505230630 60 277 2.0 6.0 0.03 0.09 0.10 86 1006.5
20260505230129 60 277 2.0 6.0 0.07 0.09 0.09 86 1007.1
20260505230119 59 277 2.0 6.0 0.06 0.10 0.10 86 1006.9
20260505225629 60 277 2.0 4.0 0.09 0.01 0.09 86 1007.1
20260505225128 60 277 2.0 7.0 0.09 0.01 0.09 88 1007.1
20260505224631 60 277 2.0 7.0 0.09 0.01 0.09 85 1007.0
20260505224510 60 277 1.0 7.0 0.09 0.09 0.09 86 1006.6
20260505224129 60 277 2.0 5.0 0.09 0.01 0.09 88 1007.0
20260505223629 60 277 1.0 4.0 0.09 0.01 0.09 89 1007.3
20260505223129 61 277 1.0 4.0 0.08 0.01 0.08 87 1007.4
20260505223102 60 277 1.0 4.0 0.08 0.08 0.08 87 1007.2
20260505222630 61 277 1.0 4.0 0.08 0.01 0.08 86 1007.1
20260505222129 61 277 1.0 4.0 0.08 0.01 0.08 86 1007.0
20260505221629 61 277 2.0 3.0 0.08 0.01 0.08 85 1006.9
20260505221503 61 277 1.0 3.0 0.08 0.08 0.08 86 1006.7
20260505221129 62 277 1.0 4.0 0.08 0.01 0.08 85 1006.9
20260505220630 63 277 2.0 5.0 0.07 0.01 0.07 81 1006.6
20260505220130 65 277 2.0 5.0 0.03 0.01 0.02 76 1006.5
20260505215629 68 277 3.0 8.0 0.00 0.00 0.00 65 1006.0
20260505215131 70 277 4.0 10.0 0.00 0.00 0.00 56 1005.4
20260505214631 73 277 3.0 10.0 0.00 0.00 0.00 48 1005.4
20260505214512 74 277 4.0 10.0 0.00 0.00 0.00 47 1005.6
20260505214129 77 277 3.0 12.0 0.00 0.00 0.00 41 1005.9
20260505213629 77 277 4.0 12.0 0.00 0.00 0.00 37 1004.0
20260505213106 77 277 4.0 10.0 0.00 0.00 0.00 37 1003.3
20260505212629 78 277 3.0 9.0 0.00 0.00 0.00 37 1003.3
20260505211654 77 277 3.0 10.0 0.00 0.00 0.00 37 1002.9
20260505211628 78 277 3.0 10.0 0.00 0.00 0.00 36 1003.1
20260505211130 78 277 3.0 8.0 0.00 0.00 0.00 37 1003.2
20260505210629 78 277 3.0 11.0 0.00 0.00 0.00 36 1003.1
20260505210129 78 277 4.0 12.0 0.00 0.00 0.00 36 1003.1
20260505210053 78 277 3.0 12.0 0.00 0.00 0.00 37 1002.9
20260505205633 79 277 4.0 12.0 0.00 0.00 0.00 35 1003.1
20260505205129 79 278 5.0 16.0 0.00 0.00 0.00 36 1003.1
20260505204647 79 277 5.0 16.0 0.00 0.00 0.00 35 1002.9
20260505204629 79 277 6.0 18.0 0.00 0.00 0.00 35 1003.1
20260505203638 80 278 4.0 18.0 0.00 0.00 0.00 34 1003.3
20260505203129 80 278 5.0 15.0 0.00 0.00 0.00 35 1003.0
20260505203048 79 278 3.0 15.0 0.00 0.00 0.00 35 1002.8
20260505202630 79 278 5.0 15.0 0.00 0.00 0.00 36 1003.0
20260505202128 79 278 4.0 10.0 0.00 0.00 0.00 35 1003.2
20260505200037 79 278 2.0 13.0 0.00 0.00 0.00 35 1003.2
20260505195630 80 278 5.0 13.0 0.00 0.00 0.00 34 1003.5
20260505195129 80 277 5.0 14.0 0.00 0.00 0.00 34 1003.5
20260505194639 79 277 5.0 14.0 0.00 0.00 0.00 35 1003.3
20260505194631 80 277 6.0 14.0 0.00 0.00 0.00 35 1003.4
20260505194130 79 0.0 0.0 0.00 0.00 0.00 34 1003.6
20260505193630 79 0.0 0.0 0.00 0.00 0.00 35 1003.9
20260505193042 80 276 5.0 14.0 0.00 0.00 0.00 36 1003.6
20260505193016 80 277 5.0 14.0 0.00 0.00 0.00 36 1003.7
20260505192016 80 278 5.0 13.0 0.00 0.00 0.00 34 1003.6
20260505191631 80 278 5.0 13.0 0.00 0.00 0.00 35 1003.8
20260505191517 80 278 6.0 22.0 0.00 0.00 0.00 35 1003.8
20260505191017 80 277 5.0 22.0 0.00 0.00 0.00 36 1003.9
20260505190509 81 276 5.0 14.0 0.00 0.00 0.00 35 1003.9
20260505185507 80 276 6.0 15.0 0.00 0.00 0.00 35 1003.8
20260505185006 80 276 5.0 15.0 0.00 0.00 0.00 35 1003.9
20260505184632 79 276 5.0 19.0 0.00 0.00 0.00 37 1004.1
20260505184505 80 276 5.0 19.0 0.00 0.00 0.00 36 1004.2
20260505184003 80 276 6.0 19.0 0.00 0.00 0.00 36 1004.2
20260505183502 80 274 5.0 15.0 0.00 0.00 0.00 36 1004.1
20260505182501 79 274 5.0 14.0 0.00 0.00 0.00 39 1004.4
20260505182001 79 274 5.0 19.0 0.00 0.00 0.00 37 1004.6
20260505181622 79 274 4.0 19.0 0.00 0.00 0.00 38 1004.5
20260505181500 79 274 6.0 19.0 0.00 0.00 0.00 38 1004.6
20260505181001 79 276 5.0 12.0 0.00 0.00 0.00 39 1004.7
20260505180502 79 276 4.0 12.0 0.00 0.00 0.00 40 1004.8
20260505180031 78 276 4.0 12.0 0.00 0.00 0.00 40 1004.9
20260505180001 78 276 4.0 12.0 0.00 0.00 0.00 41 1004.9
20260505175502 78 276 5.0 15.0 0.00 0.00 0.00 41 1004.8
20260505174620 77 276 6.0 15.0 0.00 0.00 0.00 40 1005.1
20260505174502 78 276 5.0 15.0 0.00 0.00 0.00 40 1004.9
20260505174001 78 276 5.0 15.0 0.00 0.00 0.00 42 1005.0
20260505173501 78 276 4.0 10.0 0.00 0.00 0.00 42 1005.1
20260505173006 77 276 4.0 10.0 0.00 0.01 0.00 42 1005.3
20260505173001 77 276 4.0 10.0 0.00 0.00 0.00 42 1005.2
20260505172001 77 276 5.0 17.0 0.00 0.00 0.00 41 1005.7
20260505171604 76 276 7.0 17.0 0.00 0.01 0.00 41 1005.7
20260505171501 77 276 4.0 14.0 0.00 0.00 0.00 41 1005.9